Location: Neuvy Saint Sepulchre
(46.5953°N, 1.8122°E)
Time: 04:18:33
(UTC+01:00)

ISS - Pass Details

Date: 27 November 2019
Orbit: 411 x 421 km, 51.6° (Epoch: 06 December)

Event Time Altitude Azimuth Distance (km) Brightness Sun altitude
Rises 19:11:32 0° 264° (W) 2,353 1.6 -20.4°
Reaches altitude 10° 19:13:42 10° 272° (W) 1,494 0.2 -20.8°
Enters shadow 19:16:42 42° 333° (NNW) 607 -2.9 -21.3°
